Location: Estes Par
(40.3770°N, 105.5210°W)
Time: 04:17:27
(UTC-07:00)

N. Korean satellite - Pass Details

Date: 14 October 2017
Orbit: 461 x 513 km, 97.2° (Epoch: 16 December)

Event Time Altitude Azimuth Distance (km) Brightness Sun altitude
Rises 18:59:04 0° 164° (SSE) 2,542 10.1 -7.6°
Reaches altitude 10° 19:01:08 10° 163° (SSE) 1,657 9.1 -8.0°
Maximum altitude 19:04:41 77° 77° (ENE) 494 6.4 -8.7°
Drops below altitude 10° 19:08:13 10° 351° (N) 1,641 9.3 -9.4°
Sets 19:10:15 0° 350° (N) 2,516 10.3 -9.7°
